EJA823 KFLL-KJAX

Flight info

Callsign EJA823
Flight time N/A
Altitude 30000
Route FRSBE2 STYMY ORL/N0499F310 HAINY QUBEN2
Aircraft C700/M-SBDGHM1RWXY/LB2

Departure

Time 2026-05-03 23:52
Airport Fort Lauderdale Hollywood International Airport (KFLL)

Arrival

Time N/A
Airport Jacksonville International Airport (KJAX)
Time Latitude Longitude Altitude Speed Heading
2026-05-03 22:37 26.07117 -80.15498 16 ft 0 kts 181°
2026-05-03 22:52 26.07116 -80.15498 16 ft 1 kts 176°
2026-05-03 22:53 26.07115 -80.15491 16 ft 1 kts 92°
2026-05-03 22:53 26.07137 -80.15478 16 ft 8 kts 20°
2026-05-03 22:53 26.07185 -80.15466 15 ft 6 kts
2026-05-03 22:53 26.07225 -80.15484 14 ft 7 kts 316°
2026-05-03 22:54 26.07278 -80.15541 13 ft 12 kts 315°
2026-05-03 22:54 26.07349 -80.15621 14 ft 9 kts 316°
2026-05-03 22:54 26.07378 -80.15651 14 ft 2 kts 317°
2026-05-03 22:54 26.07414 -80.15688 14 ft 12 kts 317°
2026-05-03 22:55 26.07454 -80.15733 14 ft 8 kts 315°
2026-05-03 22:55 26.07485 -80.15771 14 ft 6 kts 303°
2026-05-03 22:55 26.07493 -80.15827 14 ft 3 kts 270°
2026-05-03 22:55 26.07494 -80.15872 15 ft 7 kts 271°
2026-05-03 22:56 26.07494 -80.15908 16 ft 0 kts 271°
2026-05-03 22:57 26.07494 -80.15919 16 ft 0 kts 271°
2026-05-03 22:59 26.07494 -80.15920 16 ft 0 kts 271°
2026-05-03 22:59 26.07494 -80.15939 17 ft 6 kts 270°
2026-05-03 22:59 26.07495 -80.15990 18 ft 3 kts 270°
2026-05-03 22:59 26.07495 -80.15997 18 ft 0 kts 270°
2026-05-03 23:01 26.07495 -80.15998 18 ft 1 kts 270°
2026-05-03 23:01 26.07495 -80.16028 16 ft 4 kts 271°
2026-05-03 23:01 26.07495 -80.16062 20 ft 4 kts 270°
2026-05-03 23:02 26.07495 -80.16063 20 ft 0 kts 270°
2026-05-03 23:02 26.07495 -80.16067 20 ft 3 kts 270°
2026-05-03 23:02 26.07495 -80.16109 20 ft 1 kts 270°
2026-05-03 23:03 26.07495 -80.16117 20 ft 0 kts 270°
2026-05-03 23:06 26.07495 -80.16125 20 ft 4 kts 270°
2026-05-03 23:06 26.07495 -80.16132 20 ft 0 kts 270°
2026-05-03 23:07 26.07495 -80.16134 20 ft 2 kts 270°
2026-05-03 23:08 26.07496 -80.16181 20 ft 5 kts 270°
2026-05-03 23:08 26.07496 -80.16203 19 ft 0 kts 270°
2026-05-03 23:10 26.07496 -80.16204 19 ft 1 kts 270°
2026-05-03 23:10 26.07496 -80.16213 19 ft 1 kts 270°
2026-05-03 23:10 26.07496 -80.16215 19 ft 0 kts 270°
2026-05-03 23:13 26.07496 -80.16228 19 ft 5 kts 270°
2026-05-03 23:14 26.07496 -80.16263 19 ft 4 kts 269°
2026-05-03 23:14 26.07496 -80.16301 18 ft 6 kts 270°
2026-05-03 23:14 26.07496 -80.16332 18 ft 3 kts 271°
2026-05-03 23:14 26.07497 -80.16356 18 ft 0 kts 270°
2026-05-03 23:15 26.07497 -80.16363 18 ft 3 kts 270°
2026-05-03 23:15 26.07497 -80.16387 18 ft 1 kts 270°
2026-05-03 23:15 26.07497 -80.16388 18 ft 0 kts 270°
2026-05-03 23:16 26.07497 -80.16395 18 ft 3 kts 270°
2026-05-03 23:17 26.07497 -80.16416 18 ft 1 kts 270°
2026-05-03 23:21 26.07497 -80.16421 18 ft 2 kts 270°
2026-05-03 23:21 26.07497 -80.16431 18 ft 0 kts 270°
2026-05-03 23:25 26.07497 -80.16447 19 ft 5 kts 270°
2026-05-03 23:26 26.07497 -80.16475 19 ft 3 kts 270°
2026-05-03 23:26 26.07497 -80.16480 19 ft 0 kts 271°
2026-05-03 23:28 26.07497 -80.16487 19 ft 3 kts 271°
2026-05-03 23:28 26.07497 -80.16493 19 ft 0 kts 270°
2026-05-03 23:37 26.07497 -80.16502 19 ft 0 kts 270°
2026-05-03 23:37 26.07497 -80.16503 19 ft 0 kts 270°
2026-05-03 23:40 26.07497 -80.16504 19 ft 1 kts 270°
2026-05-03 23:41 26.07498 -80.16534 19 ft 5 kts 270°
2026-05-03 23:41 26.07497 -80.16564 19 ft 2 kts 270°
2026-05-03 23:41 26.07498 -80.16573 19 ft 0 kts 270°
2026-05-03 23:42 26.07498 -80.16580 19 ft 3 kts 270°
2026-05-03 23:43 26.07502 -80.16613 18 ft 4 kts 289°
2026-05-03 23:43 26.07517 -80.16633 18 ft 2 kts 322°
2026-05-03 23:43 26.07519 -80.16634 18 ft 0 kts 332°
2026-05-03 23:45 26.07521 -80.16635 17 ft 2 kts 332°
2026-05-03 23:45 26.07543 -80.16642 17 ft 5 kts 353°
2026-05-03 23:46 26.07545 -80.16642 17 ft 0 kts 357°
2026-05-03 23:49 26.07561 -80.16643 18 ft 5 kts 358°
2026-05-03 23:50 26.07593 -80.16643 16 ft 4 kts
2026-05-03 23:50 26.07597 -80.16643 16 ft 0 kts
2026-05-03 23:51 26.07630 -80.16643 16 ft 8 kts
2026-05-03 23:51 26.07654 -80.16642 16 ft 6 kts
2026-05-03 23:52 26.07691 -80.16612 16 ft 8 kts 65°
2026-05-03 23:52 26.07694 -80.16513 18 ft 33 kts 90°
2026-05-03 23:52 26.07691 -80.15890 22 ft 129 kts 87°
2026-05-03 23:52 26.07665 -80.14728 628 ft 156 kts 90°
2026-05-03 23:53 26.07626 -80.13520 1831 ft 158 kts 90°
2026-05-03 23:53 26.07613 -80.12258 3010 ft 168 kts 89°
2026-05-03 23:53 26.07637 -80.10908 4021 ft 190 kts 86°
2026-05-03 23:53 26.08087 -80.09260 4072 ft 257 kts 65°
2026-05-03 23:54 26.09092 -80.07669 3994 ft 240 kts 43°
2026-05-03 23:54 26.10350 -80.06638 3975 ft 212 kts 25°
2026-05-03 23:54 26.11653 -80.06072 3977 ft 192 kts 16°
2026-05-03 23:54 26.12868 -80.05600 3978 ft 179 kts 17°
2026-05-03 23:55 26.14007 -80.05137 3952 ft 170 kts 17°
2026-05-03 23:55 26.15085 -80.04768 4017 ft 154 kts
2026-05-03 23:55 26.16042 -80.04839 4343 ft 131 kts 342°
2026-05-03 23:55 26.16924 -80.05179 4955 ft 138 kts 334°
2026-05-03 23:56 26.17892 -80.05542 5740 ft 157 kts 335°
2026-05-03 23:56 26.18981 -80.05959 6528 ft 172 kts 335°
2026-05-03 23:56 26.20137 -80.06402 7252 ft 177 kts 335°
2026-05-03 23:56 26.21286 -80.06879 7957 ft 175 kts 327°
2026-05-03 23:57 26.22230 -80.07679 8690 ft 168 kts 308°
2026-05-03 23:57 26.22888 -80.08721 9432 ft 163 kts 291°
2026-05-03 23:57 26.23307 -80.09895 10167 ft 165 kts 287°
2026-05-03 23:57 26.23739 -80.11084 10867 ft 166 kts 288°
2026-05-03 23:58 26.24167 -80.12282 11651 ft 170 kts 287°
2026-05-03 23:58 26.24602 -80.13499 12569 ft 170 kts 287°
2026-05-03 23:58 26.25041 -80.14735 13409 ft 173 kts 286°
2026-05-03 23:58 26.25510 -80.15981 14192 ft 178 kts 291°
2026-05-03 23:59 26.26187 -80.17152 14968 ft 179 kts 296°
2026-05-03 23:59 26.26849 -80.18322 15734 ft 179 kts 294°
2026-05-03 23:59 26.27515 -80.19505 16465 ft 181 kts 294°
2026-05-03 23:59 26.28189 -80.20695 17197 ft 182 kts 294°
2026-05-04 00:00 26.28870 -80.21892 17915 ft 184 kts 293°
2026-05-04 00:00 26.29546 -80.23082 18565 ft 185 kts 293°
2026-05-04 00:00 26.30236 -80.24296 19164 ft 186 kts 292°
2026-05-04 00:00 26.30929 -80.25516 19755 ft 187 kts 292°
2026-05-04 00:01 26.31626 -80.26744 20339 ft 188 kts 292°
2026-05-04 00:01 26.32327 -80.27980 20911 ft 189 kts 292°
2026-05-04 00:01 26.33031 -80.29220 21485 ft 190 kts 291°
2026-05-04 00:01 26.33741 -80.30472 22039 ft 191 kts 291°
2026-05-04 00:02 26.34455 -80.31731 22581 ft 193 kts 291°
2026-05-04 00:02 26.35173 -80.32998 23105 ft 194 kts 291°
2026-05-04 00:02 26.35895 -80.34273 23610 ft 195 kts 291°
2026-05-04 00:02 26.36612 -80.35538 24021 ft 196 kts 291°
2026-05-04 00:03 26.37343 -80.36827 24434 ft 197 kts 291°
2026-05-04 00:03 26.38078 -80.38126 24849 ft 199 kts 290°
2026-05-04 00:03 26.38817 -80.39431 25264 ft 200 kts 290°
2026-05-04 00:03 26.39560 -80.40744 25682 ft 201 kts 290°
2026-05-04 00:04 26.40307 -80.42065 26090 ft 202 kts 290°
2026-05-04 00:04 26.41059 -80.43393 26487 ft 203 kts 290°
2026-05-04 00:04 26.41815 -80.44731 26875 ft 204 kts 290°
2026-05-04 00:04 26.42574 -80.46074 27248 ft 205 kts 290°
2026-05-04 00:05 26.43339 -80.47427 27610 ft 207 kts 290°
2026-05-04 00:05 26.44097 -80.48769 27954 ft 208 kts 290°
2026-05-04 00:05 26.44870 -80.50137 28298 ft 209 kts 289°
2026-05-04 00:05 26.45647 -80.51514 28633 ft 210 kts 289°
2026-05-04 00:06 26.46429 -80.52900 28958 ft 212 kts 289°
2026-05-04 00:06 26.47307 -80.54254 29281 ft 221 kts 296°
2026-05-04 00:06 26.48427 -80.55490 29591 ft 232 kts 305°
2026-05-04 00:06 26.49782 -80.56555 29918 ft 245 kts 314°
2026-05-04 00:07 26.51387 -80.57401 30019 ft 268 kts 325°
2026-05-04 00:07 26.53219 -80.57983 30015 ft 275 kts 330°
2026-05-04 00:07 26.55042 -80.58542 30012 ft 268 kts 329°
2026-05-04 00:07 26.56794 -80.59102 30017 ft 262 kts 327°
2026-05-04 00:08 26.58510 -80.59649 30003 ft 253 kts 327°
2026-05-04 00:08 26.60182 -80.60183 30002 ft 248 kts 326°
2026-05-04 00:08 26.61848 -80.60721 30006 ft 251 kts 326°
2026-05-04 00:08 26.63541 -80.61263 30018 ft 255 kts 327°
2026-05-04 00:09 26.65259 -80.61808 30024 ft 259 kts 327°
2026-05-04 00:09 26.66994 -80.62356 30021 ft 259 kts 327°
2026-05-04 00:09 26.68727 -80.62903 30025 ft 257 kts 327°
2026-05-04 00:09 26.70441 -80.63448 30020 ft 256 kts 327°
2026-05-04 00:10 26.72126 -80.63985 30011 ft 254 kts 327°
2026-05-04 00:10 26.73822 -80.64526 30010 ft 253 kts 327°
2026-05-04 00:10 26.75514 -80.65065 30012 ft 253 kts 327°
2026-05-04 00:10 26.77208 -80.65607 30014 ft 254 kts 327°
2026-05-04 00:11 26.78912 -80.66150 30018 ft 255 kts 327°
2026-05-04 00:11 26.80620 -80.66694 30024 ft 256 kts 327°
2026-05-04 00:11 26.82334 -80.67241 30026 ft 256 kts 327°
2026-05-04 00:11 26.84052 -80.67788 30028 ft 257 kts 327°
2026-05-04 00:12 26.85747 -80.68329 30029 ft 258 kts 327°
2026-05-04 00:12 26.87479 -80.68884 30033 ft 260 kts 328°
2026-05-04 00:12 26.89211 -80.69434 30023 ft 257 kts 328°
2026-05-04 00:12 26.90917 -80.69973 30014 ft 253 kts 327°
2026-05-04 00:13 26.92561 -80.70576 30014 ft 247 kts 324°
2026-05-04 00:13 26.94188 -80.71205 30015 ft 248 kts 324°
2026-05-04 00:13 26.95834 -80.71828 30021 ft 250 kts 325°
2026-05-04 00:13 26.97489 -80.72450 30026 ft 252 kts 325°
2026-05-04 00:14 26.99153 -80.73078 30035 ft 253 kts 325°
2026-05-04 00:14 27.00825 -80.73710 30034 ft 254 kts 325°
2026-05-04 00:14 27.02475 -80.74333 30037 ft 254 kts 325°
2026-05-04 00:14 27.04146 -80.74964 30036 ft 253 kts 325°
2026-05-04 00:15 27.05809 -80.75594 30031 ft 252 kts 324°
2026-05-04 00:15 27.07467 -80.76222 30032 ft 251 kts 324°
2026-05-04 00:15 27.09124 -80.76849 30031 ft 251 kts 324°
2026-05-04 00:15 27.10776 -80.77475 30030 ft 250 kts 324°
2026-05-04 00:16 27.12426 -80.78100 30033 ft 250 kts 324°
2026-05-04 00:16 27.14074 -80.78725 30033 ft 250 kts 324°
2026-05-04 00:16 27.15695 -80.79340 30032 ft 249 kts 324°
2026-05-04 00:16 27.17337 -80.79963 30076 ft 249 kts 324°
2026-05-04 00:17 27.18993 -80.80595 30039 ft 253 kts 324°
2026-05-04 00:17 27.20665 -80.81230 30046 ft 255 kts 324°
2026-05-04 00:17 27.22351 -80.81868 30044 ft 256 kts 324°
2026-05-04 00:17 27.24043 -80.82510 30042 ft 257 kts 324°
2026-05-04 00:18 27.25735 -80.83150 30040 ft 256 kts 324°
2026-05-04 00:18 27.27420 -80.83790 30038 ft 255 kts 324°
2026-05-04 00:18 27.29075 -80.84419 30036 ft 254 kts 324°
2026-05-04 00:18 27.30749 -80.85057 30033 ft 253 kts 324°
2026-05-04 00:19 27.32475 -80.85585 30026 ft 266 kts 335°
2026-05-04 00:19 27.34339 -80.85801 30039 ft 271 kts 339°
2026-05-04 00:19 27.36058 -80.86290 30031 ft 237 kts 313°
2026-05-04 00:19 27.37395 -80.87308 30045 ft 233 kts 308°
2026-05-04 00:20 27.38791 -80.88300 30042 ft 244 kts 315°
2026-05-04 00:20 27.40393 -80.89072 30042 ft 256 kts 324°
2026-05-04 00:20 27.42074 -80.89688 30040 ft 257 kts 325°
2026-05-04 00:20 27.43756 -80.90335 30034 ft 254 kts 323°
2026-05-04 00:21 27.45400 -80.91025 30043 ft 252 kts 323°
2026-05-04 00:21 27.47039 -80.91713 30033 ft 251 kts 323°
2026-05-04 00:21 27.48676 -80.92383 30029 ft 249 kts 323°
2026-05-04 00:21 27.50302 -80.93050 30024 ft 248 kts 323°
2026-05-04 00:22 27.51918 -80.93717 30020 ft 247 kts 323°
2026-05-04 00:22 27.53536 -80.94386 30024 ft 248 kts 323°
2026-05-04 00:22 27.54730 -80.94880 30030 ft 249 kts 323°
2026-05-04 00:22 27.56358 -80.95550 30050 ft 250 kts 323°
2026-05-04 00:23 27.57971 -80.96215 30053 ft 251 kts 323°
2026-05-04 00:23 27.59610 -80.96892 30056 ft 252 kts 323°
2026-05-04 00:23 27.61256 -80.97571 30059 ft 252 kts 323°
2026-05-04 00:23 27.62907 -80.98252 30058 ft 253 kts 323°
2026-05-04 00:24 27.64556 -80.98931 30057 ft 252 kts 323°
2026-05-04 00:24 27.66195 -80.99608 30054 ft 251 kts 323°
2026-05-04 00:24 27.67829 -81.00283 30052 ft 250 kts 323°
2026-05-04 00:24 27.69458 -81.00957 30049 ft 249 kts 323°
2026-05-04 00:25 27.71083 -81.01629 30049 ft 248 kts 323°
2026-05-04 00:25 27.72703 -81.02299 30047 ft 248 kts 323°
2026-05-04 00:25 27.74297 -81.02959 30046 ft 247 kts 323°
2026-05-04 00:25 27.75913 -81.03628 30045 ft 248 kts 323°
2026-05-04 00:26 27.77532 -81.04300 30069 ft 248 kts 323°
2026-05-04 00:26 27.79164 -81.04977 30051 ft 250 kts 323°
2026-05-04 00:26 27.80800 -81.05653 30060 ft 251 kts 323°
2026-05-04 00:26 27.82439 -81.06331 30058 ft 251 kts 323°
2026-05-04 00:27 27.84081 -81.07013 30060 ft 251 kts 323°
2026-05-04 00:27 27.85723 -81.07693 30061 ft 252 kts 323°
2026-05-04 00:27 27.87368 -81.08376 30058 ft 252 kts 323°
2026-05-04 00:27 27.88992 -81.09049 30059 ft 252 kts 323°
2026-05-04 00:28 27.90635 -81.09730 30065 ft 251 kts 323°
2026-05-04 00:28 27.92273 -81.10411 30005 ft 252 kts 323°
2026-05-04 00:28 27.93918 -81.11095 29983 ft 250 kts 323°
2026-05-04 00:28 27.95544 -81.11766 29976 ft 247 kts 322°
2026-05-04 00:29 27.97153 -81.12435 29969 ft 246 kts 322°
2026-05-04 00:29 27.98758 -81.13107 29968 ft 246 kts 322°
2026-05-04 00:29 28.00370 -81.13779 29971 ft 248 kts 322°
2026-05-04 00:29 28.01991 -81.14453 29974 ft 249 kts 322°
2026-05-04 00:30 28.03609 -81.15104 29985 ft 254 kts 326°
2026-05-04 00:30 28.05383 -81.15532 29987 ft 264 kts 333°
2026-05-04 00:30 28.07188 -81.15924 29993 ft 267 kts 332°
2026-05-04 00:30 28.09048 -81.16360 30038 ft 280 kts 332°
2026-05-04 00:31 28.11005 -81.16806 30003 ft 294 kts 333°
2026-05-04 00:31 28.13040 -81.17245 30005 ft 297 kts 334°
2026-05-04 00:31 28.15050 -81.17670 29858 ft 287 kts 334°
2026-05-04 00:31 28.17013 -81.18107 28808 ft 290 kts 333°
2026-05-04 00:32 28.18982 -81.18563 27992 ft 287 kts 334°
2026-05-04 00:32 28.20900 -81.18986 27290 ft 281 kts 334°
2026-05-04 00:32 28.22807 -81.19405 26550 ft 278 kts 334°
2026-05-04 00:32 28.24694 -81.19829 25809 ft 275 kts 334°
2026-05-04 00:33 28.26561 -81.20249 25108 ft 273 kts 334°
2026-05-04 00:33 28.30245 -81.21067 24006 ft 259 kts 334°
2026-05-04 00:33 28.31937 -81.21426 23983 ft 239 kts 333°
2026-05-04 00:34 28.33566 -81.21808 23995 ft 245 kts 332°
2026-05-04 00:34 28.35301 -81.22230 24017 ft 265 kts 334°
2026-05-04 00:34 28.37156 -81.22641 24013 ft 276 kts 335°
2026-05-04 00:34 28.39014 -81.23032 24014 ft 274 kts 335°
2026-05-04 00:35 28.40872 -81.23438 24002 ft 269 kts 335°
2026-05-04 00:35 28.42694 -81.23851 23996 ft 266 kts 334°
2026-05-04 00:35 28.44507 -81.24265 23992 ft 266 kts 334°
2026-05-04 00:35 28.46327 -81.24675 23993 ft 267 kts 335°
2026-05-04 00:36 28.48156 -81.25083 23995 ft 268 kts 335°
2026-05-04 00:36 28.49990 -81.25492 24005 ft 269 kts 335°
2026-05-04 00:36 28.51828 -81.25905 24006 ft 270 kts 335°
2026-05-04 00:36 28.53668 -81.26318 24008 ft 270 kts 335°
2026-05-04 00:37 28.55518 -81.26733 24008 ft 271 kts 335°
2026-05-04 00:37 28.57339 -81.27142 24008 ft 270 kts 335°
2026-05-04 00:37 28.59185 -81.27556 24007 ft 270 kts 335°
2026-05-04 00:37 28.61026 -81.27970 23975 ft 270 kts 335°
2026-05-04 00:38 28.62864 -81.28384 23977 ft 269 kts 335°
2026-05-04 00:38 28.64698 -81.28794 23976 ft 268 kts 335°
2026-05-04 00:38 28.66523 -81.29204 23974 ft 267 kts 335°
2026-05-04 00:38 28.68362 -81.29622 23996 ft 276 kts 335°
2026-05-04 00:39 28.70302 -81.30075 23985 ft 294 kts 336°
2026-05-04 00:39 28.72365 -81.30540 23980 ft 310 kts 338°
2026-05-04 00:39 28.74526 -81.31018 23982 ft 323 kts 338°
2026-05-04 00:39 28.76762 -81.31517 23980 ft 332 kts 338°
2026-05-04 00:40 28.79022 -81.32026 23984 ft 339 kts 338°
2026-05-04 00:40 28.81360 -81.32553 23982 ft 345 kts 339°
2026-05-04 00:40 28.82801 -81.32878 23978 ft 348 kts 339°
2026-05-04 00:40 28.85166 -81.33406 23988 ft 347 kts 339°
2026-05-04 00:41 28.87543 -81.33945 23997 ft 350 kts 339°
2026-05-04 00:41 28.89875 -81.34475 23995 ft 353 kts 339°
2026-05-04 00:41 28.92353 -81.35034 24002 ft 356 kts 339°
2026-05-04 00:41 28.94755 -81.35576 24004 ft 357 kts 339°
2026-05-04 00:42 28.97199 -81.36128 24030 ft 359 kts 339°
2026-05-04 00:42 28.99705 -81.36519 23927 ft 371 kts 347°
2026-05-04 00:42 29.02285 -81.36666 23933 ft 371 kts 347°
2026-05-04 00:42 29.04862 -81.36839 23924 ft 371 kts 347°
2026-05-04 00:43 29.07480 -81.37038 23479 ft 383 kts 347°
2026-05-04 00:43 29.10132 -81.37220 23383 ft 383 kts 348°
2026-05-04 00:43 29.12817 -81.37395 22957 ft 388 kts 348°
2026-05-04 00:43 29.15527 -81.37575 22544 ft 392 kts 348°
2026-05-04 00:44 29.18267 -81.37767 22141 ft 397 kts 348°
2026-05-04 00:44 29.21045 -81.37958 21742 ft 401 kts 348°
2026-05-04 00:44 29.23802 -81.38144 21351 ft 404 kts 348°
2026-05-04 00:44 29.26617 -81.38334 21026 ft 405 kts 349°
2026-05-04 00:45 29.29407 -81.38521 20993 ft 398 kts 349°
2026-05-04 00:45 29.32154 -81.38702 20995 ft 392 kts 348°
2026-05-04 00:45 29.34862 -81.38885 20992 ft 388 kts 348°
2026-05-04 00:45 29.37548 -81.39068 20990 ft 385 kts 348°
2026-05-04 00:46 29.40218 -81.39249 20989 ft 383 kts 348°
2026-05-04 00:46 29.42874 -81.39427 20987 ft 382 kts 348°
2026-05-04 00:46 29.45524 -81.39605 20988 ft 381 kts 348°
2026-05-04 00:46 29.48128 -81.39781 20987 ft 380 kts 348°
2026-05-04 00:47 29.50757 -81.39988 20983 ft 376 kts 345°
2026-05-04 00:47 29.53293 -81.40584 20796 ft 369 kts 335°
2026-05-04 00:47 29.55571 -81.41564 20565 ft 327 kts 326°
2026-05-04 00:47 29.57441 -81.42743 20288 ft 291 kts 317°
2026-05-04 00:48 29.59044 -81.44101 20031 ft 289 kts 310°
2026-05-04 00:48 29.60519 -81.45710 19796 ft 294 kts 305°
2026-05-04 00:48 29.61948 -81.47410 19577 ft 296 kts 306°
2026-05-04 00:48 29.63368 -81.49062 19347 ft 293 kts 306°
2026-05-04 00:49 29.64814 -81.50747 19112 ft 292 kts 306°
2026-05-04 00:49 29.66218 -81.52397 18883 ft 292 kts 306°
2026-05-04 00:49 29.67636 -81.54064 18663 ft 292 kts 306°
2026-05-04 00:49 29.69053 -81.55718 18601 ft 288 kts 306°
2026-05-04 00:50 29.70492 -81.57378 18119 ft 293 kts 307°
2026-05-04 00:50 29.71891 -81.58969 17587 ft 274 kts 306°
2026-05-04 00:50 29.73223 -81.60508 17057 ft 272 kts 306°
2026-05-04 00:50 29.74577 -81.62070 16554 ft 279 kts 309°
2026-05-04 00:51 29.76159 -81.63423 16053 ft 287 kts 319°
2026-05-04 00:51 29.77952 -81.64438 15559 ft 290 kts 329°
2026-05-04 00:51 29.79904 -81.65070 15072 ft 294 kts 340°
2026-05-04 00:51 29.81952 -81.65315 14595 ft 296 kts 347°
2026-05-04 00:52 29.83966 -81.65478 14138 ft 292 kts 347°
2026-05-04 00:52 29.85983 -81.65648 13652 ft 289 kts 349°
2026-05-04 00:52 29.87964 -81.65809 13138 ft 282 kts 349°
2026-05-04 00:52 29.89916 -81.65964 12626 ft 281 kts 350°
2026-05-04 00:53 29.91858 -81.66118 12123 ft 275 kts 351°
2026-05-04 00:53 29.93717 -81.66259 11619 ft 260 kts 351°
2026-05-04 00:53 29.95458 -81.66380 11126 ft 242 kts 352°
2026-05-04 00:53 29.97085 -81.66483 10631 ft 227 kts 352°
2026-05-04 00:54 29.98113 -81.66545 10309 ft 220 kts 353°
2026-05-04 00:54 30.00058 -81.66654 9985 ft 196 kts 353°
2026-05-04 00:54 30.01357 -81.66714 9783 ft 182 kts 353°
2026-05-04 00:54 30.02625 -81.66770 9369 ft 182 kts 354°
2026-05-04 00:55 30.03884 -81.66827 9002 ft 180 kts 354°
2026-05-04 00:55 30.05118 -81.66942 8578 ft 177 kts 341°
2026-05-04 00:55 30.06096 -81.67738 8201 ft 171 kts 314°
2026-05-04 00:55 30.06682 -81.68353 7937 ft 172 kts 319°
2026-05-04 00:56 30.07606 -81.69233 7568 ft 172 kts 319°
2026-05-04 00:56 30.08521 -81.70115 7220 ft 171 kts 319°
2026-05-04 00:56 30.09417 -81.70992 7006 ft 163 kts 319°
2026-05-04 00:56 30.10516 -81.72075 6852 ft 156 kts 319°
2026-05-04 00:57 30.11388 -81.72942 6313 ft 170 kts 319°
2026-05-04 00:57 30.11988 -81.73541 6107 ft 167 kts 319°
2026-05-04 00:57 30.12836 -81.74382 6002 ft 157 kts 319°
2026-05-04 00:57 30.13661 -81.75193 5996 ft 157 kts 319°
2026-05-04 00:58 30.14509 -81.76024 6022 ft 164 kts 319°
2026-05-04 00:58 30.15393 -81.76886 6025 ft 168 kts 319°
2026-05-04 00:58 30.16288 -81.77764 6009 ft 169 kts 319°
2026-05-04 00:58 30.17471 -81.78923 6003 ft 168 kts 319°
2026-05-04 00:59 30.18071 -81.79512 6003 ft 167 kts 319°
2026-05-04 00:59 30.18958 -81.80383 6001 ft 167 kts 319°
2026-05-04 00:59 30.19834 -81.81239 5999 ft 167 kts 319°
2026-05-04 00:59 30.20716 -81.82103 6001 ft 166 kts 319°
2026-05-04 01:00 30.21599 -81.82967 5995 ft 166 kts 319°
2026-05-04 01:00 30.22480 -81.83830 5994 ft 166 kts 319°
2026-05-04 01:00 30.23363 -81.84689 5995 ft 166 kts 319°